TimeCST,TemperatureF,Dew PointF,Humidity,Sea Level PressureIn,VisibilityMPH,Wind Direction,Wind SpeedMPH,Gust SpeedMPH,PrecipitationIn,Events,Conditions,WindDirDegrees,DateUTC
12:00 AM,,,,,,Calm,Calm,,,,,,2013-11-03 16:00:00
12:50 AM,35,,,30.38,,North,8.9,15.7,,,,350,2013-11-03 16:50:00
1:00 AM,,,,,,Calm,Calm,,,,,,2013-11-03 17:00:00
1:50 AM,35,,,30.39,,NNW,6.7,13.4,,,,340,2013-11-03 17:50:00
2:00 AM,,,,,,Calm,Calm,,,,,,2013-11-03 18:00:00
2:50 AM,37,,,30.40,,North,11.2,15.7,,,,350,2013-11-03 18:50:00
3:50 AM,38,,,30.41,,NNW,8.9,15.7,,,,340,2013-11-03 19:50:00
4:00 AM,,,,,,Calm,Calm,,,,,,2013-11-03 20:00:00
4:50 AM,39,,,30.43,,NW,6.7,11.2,,,,320,2013-11-03 20:50:00
5:00 AM,,,,,,Calm,Calm,,,,,,2013-11-03 21:00:00
5:50 AM,40,,,30.44,,North,4.5,15.7,,,,350,2013-11-03 21:50:00
6:50 AM,40,,,30.46,,North,11.2,13.4,,,,0,2013-11-03 22:50:00
7:50 AM,40,,,30.48,,North,8.9,13.4,,,,10,2013-11-03 23:50:00
8:50 AM,40,,,30.50,,North,8.9,11.2,,,,10,2013-11-04 00:50:00
9:00 AM,,,,,,Calm,Calm,,,,,,2013-11-04 01:00:00
9:50 AM,40,,,30.51,,NE,11.2,17.9,,,,40,2013-11-04 01:50:00
10:00 AM,,,,,,Calm,Calm,,,,,,2013-11-04 02:00:00
10:50 AM,40,,,30.53,,NNE,8.9,13.4,,,,30,2013-11-04 02:50:00
11:00 AM,,,,,,Calm,Calm,,,,,,2013-11-04 03:00:00
11:50 AM,40,,,30.55,,NE,8.9,13.4,,,,50,2013-11-04 03:50:00
12:00 PM,,,,,,Calm,Calm,,,,,,2013-11-04 04:00:00
12:50 PM,40,,,30.56,,NE,11.2,13.4,,,,50,2013-11-04 04:50:00
1:50 PM,40,,,30.57,,ENE,11.2,15.7,,,,60,2013-11-04 05:50:00
2:00 PM,,,,,,Calm,Calm,,,,,,2013-11-04 06:00:00
2:50 PM,40,,,30.59,,ENE,8.9,13.4,,,,60,2013-11-04 06:50:00
3:00 PM,,,,,,Calm,Calm,,,,,,2013-11-04 07:00:00
3:50 PM,40,,,30.61,,ENE,6.7,13.4,,,,60,2013-11-04 07:50:00
4:00 PM,,,,,,Calm,Calm,,,,,,2013-11-04 08:00:00
4:50 PM,40,,,30.62,,East,8.9,11.2,,,,80,2013-11-04 08:50:00
5:00 PM,,,,,,Calm,Calm,,,,,,2013-11-04 09:00:00
5:50 PM,40,,,30.62,,East,8.9,13.4,,,,80,2013-11-04 09:50:00
6:50 PM,39,,,30.63,,SSE,8.9,13.4,,,,160,2013-11-04 10:50:00
7:00 PM,,,,,,Calm,Calm,,,,,,2013-11-04 11:00:00
7:50 PM,39,,,30.65,,South,6.7,11.2,,,,170,2013-11-04 11:50:00
8:00 PM,,,,,,Calm,Calm,,,,,,2013-11-04 12:00:00
8:50 PM,40,,,30.66,,SSE,8.9,13.4,,,,160,2013-11-04 12:50:00
9:00 PM,,,,,,Calm,Calm,,,,,,2013-11-04 13:00:00
9:50 PM,40,,,30.67,,SSE,13.4,15.7,,,,150,2013-11-04 13:50:00
10:00 PM,,,,,,Calm,Calm,,,,,,2013-11-04 14:00:00
10:50 PM,41,,,30.67,,ESE,13.4,17.9,,,,110,2013-11-04 14:50:00